WJA228 CYYC-CYWG

Flight info

Callsign WJA228
Flight time 1h 38m
Altitude 37000
Route LOMLO Q961 DAPOP DCT DURUR DCT SEGAP BEFAN5
Aircraft B737/M-SDE2E3FGHIRWXY/LB1

Departure

Time 2026-05-04 07:03
Airport Calgary International Airport (CYYC)

Arrival

Time 2026-05-04 08:41
Airport Winnipeg / James Armstrong Richardson International Airport (CYWG)
Time Latitude Longitude Altitude Speed Heading
2026-05-04 06:40 51.13333 -114.01337 3558 ft 0 kts 191°
2026-05-04 06:46 51.13335 -114.01337 3555 ft 2 kts 191°
2026-05-04 06:46 51.13361 -114.01331 3558 ft 4 kts 181°
2026-05-04 06:48 51.13452 -114.01366 3558 ft 0 kts 181°
2026-05-04 06:50 51.13214 -114.01723 3558 ft 11 kts 181°
2026-05-04 06:51 51.13142 -114.01708 3554 ft 10 kts 165°
2026-05-04 06:51 51.13074 -114.01682 3556 ft 10 kts 172°
2026-05-04 06:51 51.12955 -114.01677 3554 ft 23 kts 180°
2026-05-04 06:51 51.12797 -114.01679 3558 ft 22 kts 180°
2026-05-04 06:52 51.12645 -114.01680 3558 ft 22 kts 174°
2026-05-04 06:52 51.12546 -114.01570 3555 ft 18 kts 169°
2026-05-04 06:52 51.12425 -114.01566 3556 ft 17 kts 179°
2026-05-04 06:52 51.12308 -114.01564 3557 ft 17 kts 179°
2026-05-04 06:53 51.12196 -114.01561 3557 ft 16 kts 156°
2026-05-04 06:53 51.12129 -114.01427 3558 ft 15 kts 119°
2026-05-04 06:53 51.12078 -114.01282 3557 ft 15 kts 119°
2026-05-04 06:53 51.12029 -114.01144 3558 ft 14 kts 119°
2026-05-04 06:54 51.11983 -114.01011 3556 ft 13 kts 119°
2026-05-04 06:54 51.11938 -114.00884 3558 ft 13 kts 119°
2026-05-04 06:54 51.11895 -114.00762 3558 ft 13 kts 121°
2026-05-04 06:54 51.11850 -114.00644 3558 ft 12 kts 121°
2026-05-04 06:55 51.11823 -114.00519 3558 ft 12 kts 91°
2026-05-04 06:55 51.11824 -114.00389 3558 ft 12 kts 89°
2026-05-04 06:55 51.11825 -114.00262 3558 ft 11 kts 89°
2026-05-04 06:55 51.11826 -114.00138 3558 ft 11 kts 90°
2026-05-04 06:56 51.11826 -114.00020 3558 ft 11 kts 90°
2026-05-04 06:57 51.11729 -113.99445 3559 ft 0 kts 179°
2026-05-04 06:59 51.11716 -113.99444 3559 ft 7 kts 179°
2026-05-04 07:01 51.11033 -113.99156 3561 ft 16 kts 91°
2026-05-04 07:01 51.11053 -113.99047 3561 ft 10 kts 27°
2026-05-04 07:02 51.11125 -113.99040 3564 ft 13 kts 358°
2026-05-04 07:02 51.11456 -113.99040 3564 ft 83 kts
2026-05-04 07:02 51.12249 -113.99041 3559 ft 143 kts 360°
2026-05-04 07:02 51.13384 -113.99038 3783 ft 172 kts
2026-05-04 07:03 51.14565 -113.98941 4472 ft 173 kts
2026-05-04 07:03 51.15718 -113.97985 4668 ft 202 kts 46°
2026-05-04 07:03 51.16260 -113.95943 5379 ft 208 kts 87°
2026-05-04 07:03 51.15982 -113.93588 5881 ft 230 kts 101°
2026-05-04 07:04 51.15519 -113.91001 6238 ft 252 kts 102°
2026-05-04 07:04 51.15019 -113.88254 6768 ft 269 kts 102°
2026-05-04 07:04 51.14499 -113.85291 7435 ft 282 kts 101°
2026-05-04 07:04 51.13979 -113.82256 8363 ft 286 kts 101°
2026-05-04 07:05 51.13464 -113.79165 9251 ft 291 kts 100°
2026-05-04 07:05 51.12958 -113.76049 10032 ft 300 kts 99°
2026-05-04 07:05 51.12429 -113.72737 10520 ft 322 kts 99°
2026-05-04 07:05 51.11861 -113.69126 10785 ft 347 kts 99°
2026-05-04 07:06 51.10634 -113.61420 12144 ft 367 kts 99°
2026-05-04 07:06 51.09996 -113.57426 12860 ft 377 kts 99°
2026-05-04 07:06 51.09345 -113.53353 13655 ft 382 kts 99°
2026-05-04 07:07 51.08688 -113.49232 14463 ft 387 kts 99°
2026-05-04 07:08 51.05788 -113.18385 19715 ft 421 kts 90°
2026-05-04 07:09 51.05468 -113.13725 20418 ft 426 kts 91°
2026-05-04 07:09 51.05130 -113.09003 21126 ft 431 kts 91°
2026-05-04 07:09 51.04785 -113.04249 21801 ft 435 kts 91°
2026-05-04 07:09 51.04435 -112.99441 22428 ft 441 kts 91°
2026-05-04 07:10 51.04096 -112.94766 23049 ft 444 kts 91°
2026-05-04 07:10 51.03756 -112.90072 23631 ft 448 kts 91°
2026-05-04 07:12 51.01145 -112.54605 27519 ft 473 kts 90°
2026-05-04 07:12 51.00753 -112.49404 28002 ft 477 kts 90°
2026-05-04 07:12 51.00355 -112.44157 28470 ft 480 kts 90°
2026-05-04 07:12 50.99952 -112.38876 28918 ft 483 kts 90°
2026-05-04 07:13 50.99684 -112.35370 29201 ft 485 kts 90°
2026-05-04 07:13 50.99132 -112.28223 29796 ft 489 kts 90°
2026-05-04 07:13 50.98857 -112.24675 30096 ft 490 kts 90°
2026-05-04 07:14 50.97157 -112.03083 31610 ft 498 kts 89°
2026-05-04 07:14 50.96720 -111.97617 31939 ft 500 kts 90°
2026-05-04 07:15 50.96280 -111.92136 32223 ft 503 kts 89°
2026-05-04 07:15 50.95835 -111.86634 32631 ft 502 kts 89°
2026-05-04 07:15 50.95386 -111.81148 33113 ft 499 kts 89°
2026-05-04 07:15 50.94937 -111.75708 33603 ft 496 kts 89°
2026-05-04 07:16 50.94490 -111.70288 33990 ft 495 kts 89°
2026-05-04 07:16 50.94043 -111.64873 34344 ft 495 kts 89°
2026-05-04 07:16 50.93596 -111.59472 34700 ft 494 kts 90°
2026-05-04 07:16 50.93146 -111.54082 35085 ft 492 kts 90°
2026-05-04 07:17 50.92694 -111.48708 35427 ft 491 kts 90°
2026-05-04 07:17 50.92371 -111.43344 35718 ft 487 kts 86°
2026-05-04 07:17 50.92182 -111.37999 36011 ft 485 kts 85°
2026-05-04 07:17 50.92046 -111.32670 36325 ft 483 kts 84°
2026-05-04 07:18 50.91926 -111.27416 36599 ft 483 kts 84°
2026-05-04 07:18 50.91797 -111.22103 36987 ft 480 kts 85°
2026-05-04 07:18 50.91500 -111.11509 37018 ft 479 kts 85°
2026-05-04 07:19 50.91161 -111.01054 37016 ft 473 kts 86°
2026-05-04 07:19 50.90812 -110.90624 37024 ft 474 kts 86°
2026-05-04 07:20 50.90455 -110.80168 37015 ft 475 kts 86°
2026-05-04 07:20 50.90090 -110.69757 37009 ft 477 kts 86°
2026-05-04 07:22 50.88514 -110.27621 36996 ft 481 kts 86°
2026-05-04 07:23 50.88096 -110.17053 36987 ft 481 kts 86°
2026-05-04 07:23 50.87667 -110.06478 36979 ft 481 kts 87°
2026-05-04 07:24 50.87259 -109.95964 36974 ft 479 kts 86°
2026-05-04 07:24 50.87044 -109.85414 36980 ft 478 kts 85°
2026-05-04 07:26 50.86210 -109.43229 36962 ft 481 kts 85°
2026-05-04 07:27 50.85954 -109.32624 36949 ft 481 kts 86°
2026-05-04 07:27 50.85693 -109.22095 36960 ft 482 kts 86°
2026-05-04 07:28 50.85421 -109.11492 36956 ft 482 kts 86°
2026-05-04 07:28 50.85139 -109.00871 36952 ft 483 kts 86°
2026-05-04 07:29 50.84847 -108.90257 36951 ft 483 kts 86°
2026-05-04 07:29 50.84545 -108.79606 36943 ft 484 kts 87°
2026-05-04 07:30 50.84233 -108.68974 36943 ft 484 kts 87°
2026-05-04 07:30 50.83913 -108.58383 36945 ft 485 kts 87°
2026-05-04 07:31 50.83582 -108.47730 36946 ft 485 kts 87°
2026-05-04 07:33 50.82153 -108.04983 36928 ft 488 kts 88°
2026-05-04 07:33 50.81766 -107.94178 36912 ft 489 kts 88°
2026-05-04 07:34 50.81376 -107.83551 36916 ft 489 kts 88°
2026-05-04 07:34 50.80973 -107.72813 36908 ft 489 kts 88°
2026-05-04 07:35 50.80560 -107.62094 36915 ft 488 kts 88°
2026-05-04 07:35 50.80136 -107.51358 36898 ft 489 kts 89°
2026-05-04 07:36 50.79740 -107.41514 36885 ft 489 kts 89°
2026-05-04 07:38 50.77965 -106.99749 36861 ft 487 kts 89°
2026-05-04 07:38 50.77485 -106.89045 36858 ft 487 kts 89°
2026-05-04 07:39 50.76999 -106.78431 36844 ft 487 kts 90°
2026-05-04 07:39 50.76501 -106.67751 36835 ft 487 kts 90°
2026-05-04 07:40 50.75994 -106.57098 36809 ft 487 kts 90°
2026-05-04 07:40 50.75478 -106.46431 36795 ft 486 kts 90°
2026-05-04 07:41 50.74951 -106.35775 36783 ft 486 kts 90°
2026-05-04 07:41 50.74415 -106.25117 36771 ft 486 kts 90°
2026-05-04 07:42 50.73869 -106.14475 36751 ft 486 kts 90°
2026-05-04 07:42 50.73317 -106.03899 36743 ft 486 kts 90°
2026-05-04 07:43 50.72753 -105.93268 36731 ft 486 kts 90°
2026-05-04 07:43 50.72177 -105.82613 36717 ft 486 kts 91°
2026-05-04 07:44 50.71594 -105.71989 36707 ft 486 kts 91°
2026-05-04 07:44 50.71002 -105.61403 36703 ft 486 kts 91°
2026-05-04 07:45 50.70400 -105.50788 36694 ft 486 kts 91°
2026-05-04 07:45 50.69787 -105.40169 36717 ft 485 kts 91°
2026-05-04 07:46 50.69167 -105.29584 36721 ft 484 kts 91°
2026-05-04 07:46 50.68537 -105.19012 36735 ft 484 kts 91°
2026-05-04 07:47 50.67899 -105.08447 36747 ft 483 kts 91°
2026-05-04 07:49 50.63835 -104.66585 36800 ft 485 kts 99°
2026-05-04 07:49 50.62409 -104.56265 36804 ft 485 kts 99°
2026-05-04 07:50 50.61007 -104.45874 36813 ft 485 kts 99°
2026-05-04 07:50 50.59613 -104.35470 36814 ft 485 kts 99°
2026-05-04 07:51 50.58212 -104.25080 36811 ft 485 kts 99°
2026-05-04 07:51 50.56798 -104.14676 36806 ft 486 kts 99°
2026-05-04 07:52 50.55370 -104.04265 36807 ft 486 kts 99°
2026-05-04 07:52 50.53932 -103.93858 36807 ft 487 kts 99°
2026-05-04 07:54 50.48169 -103.52861 36786 ft 488 kts 100°
2026-05-04 07:55 50.46684 -103.42460 36777 ft 488 kts 100°
2026-05-04 07:55 50.45190 -103.32073 36766 ft 487 kts 100°
2026-05-04 07:56 50.43697 -103.21765 36769 ft 487 kts 100°
2026-05-04 07:56 50.42186 -103.11407 36765 ft 487 kts 100°
2026-05-04 07:57 50.40667 -103.01060 36760 ft 487 kts 101°
2026-05-04 07:57 50.39138 -102.90722 36761 ft 486 kts 101°
2026-05-04 07:58 50.37601 -102.80392 36750 ft 486 kts 101°
2026-05-04 07:58 50.36057 -102.70082 36748 ft 486 kts 101°
2026-05-04 07:59 50.34509 -102.59822 36748 ft 485 kts 101°
2026-05-04 07:59 50.32957 -102.49597 36752 ft 485 kts 101°
2026-05-04 08:00 50.31385 -102.39322 36740 ft 485 kts 102°
2026-05-04 08:02 50.25288 -101.99993 36698 ft 485 kts 102°
2026-05-04 08:02 50.23671 -101.89737 36697 ft 486 kts 102°
2026-05-04 08:03 50.22046 -101.79487 36689 ft 486 kts 102°
2026-05-04 08:03 50.20428 -101.69324 36689 ft 486 kts 102°
2026-05-04 08:04 50.18785 -101.59079 36664 ft 486 kts 102°
2026-05-04 08:04 50.17134 -101.48860 36662 ft 486 kts 103°
2026-05-04 08:05 50.15470 -101.38625 36653 ft 486 kts 103°
2026-05-04 08:05 50.13806 -101.28416 36652 ft 486 kts 103°
2026-05-04 08:06 50.12126 -101.18198 36633 ft 486 kts 103°
2026-05-04 08:06 50.10439 -101.08008 36626 ft 486 kts 103°
2026-05-04 08:08 50.03623 -100.67408 36607 ft 484 kts 104°
2026-05-04 08:11 49.95819 -100.22049 36615 ft 483 kts 104°
2026-05-04 08:11 49.93170 -100.06904 36072 ft 490 kts 104°
2026-05-04 08:12 49.92274 -100.01810 35477 ft 488 kts 104°
2026-05-04 08:12 49.91380 -99.96709 34777 ft 489 kts 103°
2026-05-04 08:12 49.90736 -99.91523 33915 ft 492 kts 95°
2026-05-04 08:12 49.90441 -99.86222 33237 ft 492 kts 92°
2026-05-04 08:13 49.90225 -99.80938 32596 ft 490 kts 91°
2026-05-04 08:13 49.90030 -99.75682 32076 ft 486 kts 91°
2026-05-04 08:13 49.89830 -99.70460 31533 ft 483 kts 92°
2026-05-04 08:13 49.89615 -99.65269 31001 ft 479 kts 92°
2026-05-04 08:14 49.89385 -99.60128 30475 ft 477 kts 92°
2026-05-04 08:14 49.89143 -99.55013 29948 ft 474 kts 92°
2026-05-04 08:14 49.88895 -99.49943 29430 ft 470 kts 92°
2026-05-04 08:16 49.87147 -99.15522 25636 ft 446 kts 93°
2026-05-04 08:16 49.86897 -99.10741 25089 ft 443 kts 93°
2026-05-04 08:16 49.86646 -99.05990 24556 ft 439 kts 93°
2026-05-04 08:17 49.86397 -99.01304 24028 ft 435 kts 93°
2026-05-04 08:17 49.86151 -98.96715 23487 ft 432 kts 93°
2026-05-04 08:17 49.85902 -98.92094 22957 ft 428 kts 93°
2026-05-04 08:17 49.85654 -98.87515 22425 ft 425 kts 93°
2026-05-04 08:19 49.83911 -98.56328 18682 ft 405 kts 92°
2026-05-04 08:19 49.83663 -98.52000 18177 ft 402 kts 92°
2026-05-04 08:20 49.83414 -98.47682 17638 ft 400 kts 92°
2026-05-04 08:20 49.83164 -98.43396 17120 ft 398 kts 92°
2026-05-04 08:20 49.82914 -98.39139 16579 ft 396 kts 92°
2026-05-04 08:20 49.82665 -98.34912 16066 ft 393 kts 92°
2026-05-04 08:21 49.82415 -98.30695 15529 ft 391 kts 92°
2026-05-04 08:21 49.82165 -98.26514 15014 ft 389 kts 92°
2026-05-04 08:21 49.81916 -98.22355 14493 ft 387 kts 92°
2026-05-04 08:21 49.81671 -98.18263 13969 ft 385 kts 92°
2026-05-04 08:22 49.81421 -98.14161 13469 ft 382 kts 93°
2026-05-04 08:22 49.81171 -98.10075 12973 ft 379 kts 92°
2026-05-04 08:24 49.79731 -97.83450 10697 ft 335 kts 92°
2026-05-04 08:24 49.79554 -97.79870 10284 ft 333 kts 92°
2026-05-04 08:24 49.79377 -97.76336 10087 ft 324 kts 93°
2026-05-04 08:24 49.79206 -97.72895 9792 ft 320 kts 93°
2026-05-04 08:25 49.79027 -97.69473 9427 ft 319 kts 93°
2026-05-04 08:25 49.78850 -97.66065 9067 ft 317 kts 94°
2026-05-04 08:25 49.78674 -97.62674 8695 ft 316 kts 93°
2026-05-04 08:25 49.78507 -97.59356 8332 ft 314 kts 94°
2026-05-04 08:26 49.78331 -97.55985 7937 ft 313 kts 94°
2026-05-04 08:27 49.76785 -97.32773 5614 ft 297 kts 93°
2026-05-04 08:28 49.76502 -97.29658 5455 ft 291 kts 105°
2026-05-04 08:28 49.75685 -97.26844 5313 ft 282 kts 118°
2026-05-04 08:28 49.74781 -97.24195 5155 ft 275 kts 117°
2026-05-04 08:28 49.73912 -97.21602 5007 ft 269 kts 117°
2026-05-04 08:29 49.73068 -97.19036 4868 ft 265 kts 117°
2026-05-04 08:29 49.72219 -97.16533 4717 ft 259 kts 123°
2026-05-04 08:29 49.71048 -97.14568 4579 ft 249 kts 143°
2026-05-04 08:31 49.60801 -97.06424 4022 ft 237 kts 168°
2026-05-04 08:33 49.60122 -96.95739 3206 ft 219 kts 13°
2026-05-04 08:33 49.61590 -96.95492 3023 ft 211 kts 339°
2026-05-04 08:35 49.68159 -97.05348 3004 ft 208 kts 323°
2026-05-04 08:35 49.69533 -97.06029 3001 ft 214 kts 357°
2026-05-04 08:35 49.71018 -97.05807 3018 ft 215 kts
2026-05-04 08:35 49.72468 -97.05538 3016 ft 207 kts
2026-05-04 08:37 49.78935 -97.07982 2980 ft 162 kts 310°
2026-05-04 08:37 49.79682 -97.09275 2636 ft 157 kts 313°
2026-05-04 08:37 49.80448 -97.10370 2459 ft 135 kts 317°
2026-05-04 08:38 49.81119 -97.11257 2742 ft 126 kts 316°
2026-05-04 08:38 49.81780 -97.12143 2766 ft 126 kts 316°
2026-05-04 08:38 49.82471 -97.12992 2606 ft 124 kts 320°
2026-05-04 08:40 49.86835 -97.19089 1440 ft 122 kts 315°
2026-05-04 08:40 49.87454 -97.19975 1287 ft 120 kts 317°
2026-05-04 08:40 49.88050 -97.20847 1193 ft 116 kts 313°
2026-05-04 08:41 49.88673 -97.21710 1123 ft 130 kts 322°
2026-05-04 08:41 49.89371 -97.22600 835 ft 127 kts 316°
2026-05-04 08:41 49.89985 -97.23438 786 ft 99 kts 319°
2026-05-04 08:41 49.90351 -97.23929 784 ft 43 kts 327°
2026-05-04 08:42 49.90577 -97.23948 787 ft 30 kts
2026-05-04 08:42 49.90732 -97.23909 787 ft 20 kts 26°
2026-05-04 08:42 49.90785 -97.23829 787 ft 0 kts 58°
2026-05-04 08:43 49.90796 -97.23799 786 ft 11 kts 62°
2026-05-04 08:43 49.90824 -97.23617 785 ft 20 kts 81°
2026-05-04 08:43 49.90847 -97.23410 785 ft 19 kts 80°
2026-05-04 08:44 49.90869 -97.23210 785 ft 18 kts 80°
2026-05-04 08:44 49.90888 -97.23016 785 ft 18 kts 85°
2026-05-04 08:46 49.90684 -97.22501 785 ft 0 kts 174°